(344939) = 2008 SQ257 = 2004 TT319

Discovered at Kitt Peak on 2004-10-11 by Spacewatch.

Orbit

Orbit type: Main Belt

Note: WebGL enabled browser required.

epoch2022-01-21.0
epoch JD2459600.5
perihelion date2018-02-27.82155
perihelion JD2458177.32155
argument of perihelion (°)113.32762
ascending node (°)30.05942
inclination (°)15.77447
eccentricity0.0447872
perihelion distance (AU)2.4252413
Tisserand w.r.t. Jupiter3.4
ΔV w.r.t. Earth (km/sec)11.0
semimajor axis (AU)2.5389539
mean anomaly (°)346.72166
mean daily motion (°/day)0.24362490
aphelion distance (AU)2.653
period (years)4.05
P-vector [x]-0.78536045
P-vector [y]0.42043415
P-vector [z]0.45436120
Q-vector [x]-0.60387644
Q-vector [y]-0.68178378
Q-vector [z]-0.41292145
absolute magnitude16.56
phase slope0.15
uncertainty0
referenceMPO 697998
observations used335
oppositions9
arc length (days)6406
first opposition used2004
last opposition used2022
residual rms (arc-secs)0.78
perturbers coarse indicatorM-v
perturbers precise indicator003Ek
first observation date used2004-10-11.0
last observation date used2022-04-26.0
computer namePan
JD of orbit computation2456700.374299
perihelion JD uncertainty (days)1.6940E-03
argument of perihelion uncertainty (°)4.4253E-04
ascending node uncertainty (°)1.6177E-05
inclination uncertainty (°)1.2327E-05
eccentricity uncertainty 5.1790E-07
perihelion distance uncertainty (AU)1.2940E-06
Minimum Orbit Intersection Distances (in AU)
for orbit epoch: 2459600.5, reference: E2022-B04
Mercury2.04852
Venus1.72209
Earth1.46527
Mars0.82635
Jupiter2.35032
Saturn6.65851
Uranus15.9938
Neptune27.2708

Observations

337 total observations over interval: 2004 10 11.36931 – 2022 04 26.168406
These data are available for download (format description).

Date (UT) J2000 RA J2000 Dec Magn Location Ref
2004 10 11.36931 02 09 09.11 +12 00 27.5 20.1 V 691 – Steward Observatory, Kitt Peak-Spacewatch MPS 118697
2004 10 11.40082 02 09 07.11 +12 00 29.6 20.0 V 691 – Steward Observatory, Kitt Peak-Spacewatch MPS 118697
2004 10 11.42848 02 09 05.35 +12 00 31.2 20.0 V 691 – Steward Observatory, Kitt Peak-Spacewatch MPS 118697
2004 10 15.33118 02 04 58.43 +12 04 08.4 19.9 V 691 – Steward Observatory, Kitt Peak-Spacewatch MPS 118697
2004 10 15.35821 02 04 56.63 +12 04 09.7 20.0 V 691 – Steward Observatory, Kitt Peak-Spacewatch MPS 118697
2004 10 15.38559 02 04 54.78 +12 04 11.1 20.3 V 691 – Steward Observatory, Kitt Peak-Spacewatch MPS 118697
2004 11 04.30263 01 42 49.62 +12 15 31.1 19.3 R 703 – Catalina Sky Survey MPS 118697
2004 11 04.31065 01 42 49.18 +12 15 31.6 19.6 R 703 – Catalina Sky Survey MPS 118697
2004 11 04.31881 01 42 48.66 +12 15 30.7 19.7 R 703 – Catalina Sky Survey MPS 118697
2004 11 04.32686 01 42 48.02 +12 15 33.2 19.6 R 703 – Catalina Sky Survey MPS 118697
2008 09 22.30902 02 05 24.72 +08 02 14.9 20.3 V 691 – Steward Observatory, Kitt Peak-Spacewatch MPS 263381
2008 09 22.32659 02 05 24.01 +08 02 15.9 20.1 V 691 – Steward Observatory, Kitt Peak-Spacewatch MPS 263381
2008 09 22.34762 02 05 23.07 +08 02 17.4 19.9 V 691 – Steward Observatory, Kitt Peak-Spacewatch MPS 263381
2008 10 08.26960 01 51 19.99 +08 13 48.8 19.8 V 691 – Steward Observatory, Kitt Peak-Spacewatch MPS 263381
2008 10 08.29409 01 51 18.44 +08 13 49.4 19.6 V 691 – Steward Observatory, Kitt Peak-Spacewatch MPS 263381
2008 10 08.31168 01 51 17.32 +08 13 50.0 20.0 V 691 – Steward Observatory, Kitt Peak-Spacewatch MPS 263381
2008 10 08.44207 01 51 09.00 +08 13 52.6 19.7 V G96 – Mt. Lemmon Survey MPS 263381
2008 10 08.44608 01 51 08.74 +08 13 52.7 20.3 V G96 – Mt. Lemmon Survey MPS 263381
2008 10 08.45013 01 51 08.49 +08 13 53.0 20.3 V G96 – Mt. Lemmon Survey MPS 263381
2008 10 08.45415 01 51 08.24 +08 13 52.7 19.9 V G96 – Mt. Lemmon Survey MPS 263381
2008 10 20.26107 01 38 19.06 +08 17 21.2 19.6 V G96 – Mt. Lemmon Survey MPS 263381
2008 10 20.26598 01 38 18.70 +08 17 21.2 19.7 V G96 – Mt. Lemmon Survey MPS 263381
2008 10 20.27099 01 38 18.38 +08 17 21.3 19.6 V G96 – Mt. Lemmon Survey MPS 263381
2008 10 20.27593 01 38 18.06 +08 17 21.4 19.6 V G96 – Mt. Lemmon Survey MPS 263381
2008 10 28.24084 01 29 33.61 +08 20 10.3 19.8 V G96 – Mt. Lemmon Survey MPS 263381
2008 10 28.24689 01 29 33.21 +08 20 10.3 19.9 V G96 – Mt. Lemmon Survey MPS 263381
2008 10 28.25291 01 29 32.82 +08 20 10.5 19.8 V G96 – Mt. Lemmon Survey MPS 263381
2008 10 28.25895 01 29 32.42 +08 20 10.9 19.9 V G96 – Mt. Lemmon Survey MPS 263381
2008 11 07.17524 01 19 38.13 +08 27 30.6 20.3 V G96 – Mt. Lemmon Survey MPS 263196
2008 11 07.18178 01 19 37.74 +08 27 30.4 21.7 V G96 – Mt. Lemmon Survey MPS 263196
2008 11 07.18837 01 19 37.38 +08 27 30.9 20.8 V G96 – Mt. Lemmon Survey MPS 263196
2008 11 07.19495 01 19 36.94 +08 27 31.1 21.5 V G96 – Mt. Lemmon Survey MPS 263196
2010 02 06.38945 11 03 01.87 +31 13 10.9 19.9 V G96 – Mt. Lemmon Survey MPS 313146
2010 02 06.39262 11 03 01.69 +31 13 12.1 19.6 V G96 – Mt. Lemmon Survey MPS 313146
2010 02 06.39433 11 03 01.62 +31 13 12.8 19.7 V G96 – Mt. Lemmon Survey MPS 313146
2010 02 06.39604 11 03 01.54 +31 13 13.4 19.7 V G96 – Mt. Lemmon Survey MPS 313146
2010 02 15.30024 10 54 10.90 +31 56 15.9 20.0 V 703 – Catalina Sky Survey MPS 313146
2010 02 15.30724 10 54 10.51 +31 56 17.2 19.8 V 703 – Catalina Sky Survey MPS 313146
2010 02 15.31415 10 54 09.97 +31 56 18.9 19.6 V 703 – Catalina Sky Survey MPS 313146
2010 02 15.32112 10 54 09.57 +31 56 21.1 20.4 V 703 – Catalina Sky Survey MPS 313146
2010 03 05.37361 10 33 21.27 +32 22 48.0 19.4 V 703 – Catalina Sky Survey MPS 316714
2010 03 05.38010 10 33 20.91 +32 22 44.9 20.2 V 703 – Catalina Sky Survey MPS 316714
2010 03 05.38666 10 33 20.30 +32 22 47.5 19.3 V 703 – Catalina Sky Survey MPS 316714
2010 03 05.39322 10 33 20.05 +32 22 45.5 20.0 V 703 – Catalina Sky Survey MPS 316714
2012 10 08.28359 01 31 23.01 +04 30 19.1 20.3 V G96 – Mt. Lemmon Survey MPS 434110
2012 10 08.29390 01 31 22.33 +04 30 19.2 20.1 V G96 – Mt. Lemmon Survey MPS 434110
2012 10 08.30419 01 31 21.64 +04 30 19.2 20.4 V G96 – Mt. Lemmon Survey MPS 434110
2012 10 08.31443 01 31 20.96 +04 30 19.2 20.2 V G96 – Mt. Lemmon Survey MPS 434110
2012 10 08.433479 01 31 13.364 +04 30 19.38 19.6 r F51 – Pan-STARRS 1, Haleakala MPS 435039
2012 10 08.498468 01 31 09.058 +04 30 18.93 19.5 i F51 – Pan-STARRS 1, Haleakala MPS 435039
2012 10 08.511584 01 31 08.199 +04 30 18.82 19.4 i F51 – Pan-STARRS 1, Haleakala MPS 435039
2012 10 11.473835 01 27 56.393 +04 30 01.70 20.7 g F51 – Pan-STARRS 1, Haleakala MPS 435039
2012 10 11.486516 01 27 55.549 +04 30 01.84 20.5 g F51 – Pan-STARRS 1, Haleakala MPS 435039
2012 10 16.14915 01 22 49.19 +04 29 59.7 20.2 V 691 – Steward Observatory, Kitt Peak-Spacewatch MPS 435039
2012 10 16.16185 01 22 48.36 +04 29 59.5 20.0 V 691 – Steward Observatory, Kitt Peak-Spacewatch MPS 435039
2012 10 16.17456 01 22 47.50 +04 29 59.6 20.0 V 691 – Steward Observatory, Kitt Peak-Spacewatch MPS 435039
2012 10 16.25737 01 22 41.88 +04 30 00.2 20.2 V G96 – Mt. Lemmon Survey MPS 435039
2012 10 16.26420 01 22 41.44 +04 30 00.1 20.1 V G96 – Mt. Lemmon Survey MPS 435039
2012 10 16.27108 01 22 40.98 +04 30 00.2 20.5 V G96 – Mt. Lemmon Survey MPS 435039
2012 10 16.27787 01 22 40.51 +04 30 00.1 20.3 V G96 – Mt. Lemmon Survey MPS 435039
2012 10 17.394225 01 21 26.995 +04 30 08.13 19.9 w F51 – Pan-STARRS 1, Haleakala MPS 435039
2012 10 17.407620 01 21 26.085 +04 30 08.24 19.8 w F51 – Pan-STARRS 1, Haleakala MPS 435039
2012 10 17.434579 01 21 24.256 +04 30 08.49 19.7 w F51 – Pan-STARRS 1, Haleakala MPS 435039
2012 11 05.09816 01 02 38.33 +04 44 22.1 20.6 V 691 – Steward Observatory, Kitt Peak-Spacewatch MPS 439467
2012 11 05.13438 01 02 36.38 +04 44 25.6 20.4 V 691 – Steward Observatory, Kitt Peak-Spacewatch MPS 439467
2012 11 05.16111 01 02 34.99 +04 44 28.1 20.1 V 691 – Steward Observatory, Kitt Peak-Spacewatch MPS 439467
2012 11 05.287460 01 02 28.552 +04 44 40.77 20.1 w F51 – Pan-STARRS 1, Haleakala MPS 439467
2012 11 05.302596 01 02 27.752 +04 44 42.21 20.2 w F51 – Pan-STARRS 1, Haleakala MPS 439467
2012 11 05.317668 01 02 26.953 +04 44 43.69 20.4 w F51 – Pan-STARRS 1, Haleakala MPS 439467
2012 11 05.332794 01 02 26.152 +04 44 45.03 20.6 w F51 – Pan-STARRS 1, Haleakala MPS 439467
2012 11 12.15123 00 57 10.94 +04 57 59.4 19.8 V 703 – Catalina Sky Survey MPS 441701
2012 11 12.15666 00 57 10.54 +04 57 58.4 20.5 V 703 – Catalina Sky Survey MPS 441701
2012 11 12.16208 00 57 10.26 +04 58 00.4 20.1 V 703 – Catalina Sky Survey MPS 441701
2012 11 12.16751 00 57 10.04 +04 58 00.0 21.3 V 703 – Catalina Sky Survey MPS 441701
2012 11 20.14876 00 52 33.13 +05 20 07.9 20.6 V G96 – Mt. Lemmon Survey MPS 443370
2012 11 20.15420 00 52 32.95 +05 20 08.9 20.1 V G96 – Mt. Lemmon Survey MPS 443370
2012 11 20.15965 00 52 32.80 +05 20 10.1 20.0 V G96 – Mt. Lemmon Survey MPS 443370
2012 11 20.16516 00 52 32.62 +05 20 10.5 20.0 V G96 – Mt. Lemmon Survey MPS 443370
2012 12 07.06691 00 48 44.82 +06 31 15.7 20.2 V G96 – Mt. Lemmon Survey MPS 445931
2012 12 07.07247 00 48 44.85 +06 31 17.4 20.2 V G96 – Mt. Lemmon Survey MPS 445931
2012 12 07.07808 00 48 44.85 +06 31 18.8 20.3 V G96 – Mt. Lemmon Survey MPS 445931
2012 12 07.08365 00 48 44.82 +06 31 20.6 20.5 V G96 – Mt. Lemmon Survey MPS 445931
2013 02 10.23189 01 35 39.165 +14 57 29.37 21.3 w F51 – Pan-STARRS 1, Haleakala MPS 456287
2013 02 10.23585 01 35 39.445 +14 57 31.62 21.5 w F51 – Pan-STARRS 1, Haleakala MPS 456287
2013 02 10.24374 01 35 40.045 +14 57 36.11 21.4 w F51 – Pan-STARRS 1, Haleakala MPS 456287
2014 01 21.40044 10 48 52.48 +33 13 15.5 19.1 V 703 – Catalina Sky Survey MPS 498385
2014 01 21.40926 10 48 52.23 +33 13 17.4 20.6 V 703 – Catalina Sky Survey MPS 498385
2014 01 21.41815 10 48 51.85 +33 13 19.3 19.5 V 703 – Catalina Sky Survey MPS 498385
2014 01 21.42698 10 48 51.65 +33 13 23.3 20.8 V 703 – Catalina Sky Survey MPS 498385
2014 01 29.32574 10 43 22.99 +34 07 00.9 19.6 V 703 – Catalina Sky Survey MPS 500161
2014 01 29.33244 10 43 22.56 +34 07 02.8 19.8 V 703 – Catalina Sky Survey MPS 500161
